Location: Bittelbronn
(48.4454°N, 8.5870°E)
Time: 16:34:58
(UTC+00:00)

SL-08 R/B - Pass Details

Date: 23 May 2024
Orbit: 945 x 993 km, 83.0° (Epoch: 16 June)

Event Time Altitude Azimuth Distance (km) Brightness Sun altitude
Exits shadow 00:44:07 30° 190° (S) 1,651 5.1 -18.5°
Maximum altitude 00:47:23 87° 277° (W) 972 4.4 -18.3°
Drops below altitude 10° 00:53:34 10° 9° (N) 2,696 8.0 -18.0°
Sets 00:56:04 0° 9° (N) 3,640 9.0 -17.8°
